| time (UTC) | temp F | wind direction | speed MPH | gust MPH | rain 1hr in | rain 24hr in | rain mn in | humidity % | barometer mb |
| 20260510170005 | 61 | 124 | 0.0 | 4.0 | 0.00 | 0.65 | 0.00 | 86 | 1014.7 |
| 20260510164550 | 61 | 155 | 0.0 | 2.0 | 0.00 | 0.65 | 0.00 | 86 | 1014.7 |
| 20260510163047 | 60 | 141 | 1.0 | 5.0 | 0.00 | 0.65 | 0.00 | 85 | 1014.8 |
| 20260510161532 | 61 | 107 | 0.0 | 5.0 | 0.00 | 0.65 | 0.00 | 86 | 1014.9 |
| 20260510160034 | 60 | 82 | 1.0 | 7.0 | 0.00 | 0.65 | 0.00 | 85 | 1014.8 |
| 20260510154513 | 60 | 160 | 0.0 | 5.0 | 0.00 | 0.65 | 0.00 | 87 | 1014.9 |
| 20260510153009 | 59 | 242 | 0.0 | 6.0 | 0.00 | 0.65 | 0.00 | 88 | 1015.2 |
| 20260510151505 | 58 | 159 | 1.0 | 4.0 | 0.00 | 0.65 | 0.00 | 88 | 1015.1 |
| 20260510150002 | 56 | 294 | 0.0 | 4.0 | 0.00 | 0.65 | 0.00 | 92 | 1015.0 |
| 20260510144602 | 55 | 148 | 0.0 | 3.0 | 0.00 | 0.65 | 0.00 | 92 | 1014.8 |
| 20260510143058 | 54 | 126 | 0.0 | 3.0 | 0.00 | 0.65 | 0.00 | 92 | 1014.8 |
| 20260510141559 | 54 | 238 | 0.0 | 5.0 | 0.00 | 0.65 | 0.00 | 91 | 1014.7 |
| 20260510140058 | 55 | 163 | 0.0 | 4.0 | 0.00 | 0.65 | 0.00 | 91 | 1014.7 |
| 20260510134604 | 55 | 114 | 0.0 | 3.0 | 0.00 | 0.65 | 0.00 | 92 | 1014.7 |
| 20260510133037 | 55 | 135 | 0.0 | 1.0 | 0.00 | 0.65 | 0.00 | 93 | 1014.7 |
| 20260510131536 | 55 | 104 | 0.0 | 1.0 | 0.00 | 0.65 | 0.00 | 94 | 1014.6 |
| 20260510130017 | 54 | 4 | 0.0 | 0.0 | 0.00 | 0.65 | 0.00 | 94 | 1014.6 |
| 20260510124514 | 54 | 311 | 0.0 | 2.0 | 0.00 | 0.65 | 0.00 | 94 | 1014.5 |
| 20260510123059 | 53 | 217 | 0.0 | 1.0 | 0.00 | 0.65 | 0.00 | 95 | 1014.3 |
| 20260510121554 | 53 | 288 | 0.0 | 3.0 | 0.00 | 0.65 | 0.00 | 95 | 1014.4 |
| 20260510120034 | 53 | 270 | 0.0 | 2.0 | 0.00 | 0.65 | 0.00 | 95 | 1013.9 |
| 20260510114537 | 53 | 109 | 0.0 | 1.0 | 0.00 | 0.65 | 0.00 | 95 | 1013.6 |
| 20260510113014 | 52 | 37 | 0.0 | 0.0 | 0.00 | 0.65 | 0.00 | 96 | 1013.8 |
| 20260510111514 | 52 | 96 | 0.0 | 1.0 | 0.00 | 0.65 | 0.00 | 96 | 1013.9 |
| 20260510110054 | 51 | 96 | 0.0 | 4.0 | 0.00 | 0.65 | 0.00 | 96 | 1013.4 |
| 20260510104555 | 51 | 176 | 0.0 | 3.0 | 0.00 | 0.65 | 0.00 | 96 | 1013.5 |
| 20260510103038 | 50 | 82 | 0.0 | 0.0 | 0.00 | 0.65 | 0.00 | 95 | 1013.7 |
| 20260510101536 | 50 | 82 | 0.0 | 0.0 | 0.00 | 0.65 | 0.00 | 95 | 1013.7 |
| 20260510100016 | 51 | 82 | 0.0 | 0.0 | 0.00 | 0.65 | 0.00 | 95 | 1013.7 |
| 20260510094531 | 51 | 82 | 0.0 | 0.0 | 0.00 | 0.65 | 0.00 | 95 | 1013.9 |
| 20260510093056 | 52 | 82 | 0.0 | 1.0 | 0.00 | 0.65 | 0.00 | 95 | 1013.9 |
| 20260510091556 | 52 | 96 | 0.0 | 0.0 | 0.00 | 0.65 | 0.00 | 95 | 1014.0 |
| 20260510090039 | 52 | 96 | 0.0 | 0.0 | 0.00 | 0.66 | 0.00 | 95 | 1014.1 |
| 20260510084537 | 52 | 96 | 0.0 | 0.0 | 0.00 | 0.66 | 0.00 | 95 | 1014.1 |
| 20260510083023 | 51 | 96 | 0.0 | 0.0 | 0.00 | 0.66 | 0.00 | 95 | 1013.4 |
| 20260510081533 | 52 | 96 | 0.0 | 0.0 | 0.00 | 0.66 | 0.00 | 95 | 1013.1 |
| 20260510080020 | 52 | 104 | 0.0 | 0.0 | 0.00 | 0.66 | 0.00 | 95 | 1012.9 |
| 20260510074520 | 52 | 103 | 0.0 | 0.0 | 0.00 | 0.66 | 0.00 | 95 | 1013.0 |
| 20260510073019 | 52 | 103 | 0.0 | 0.0 | 0.00 | 0.66 | 0.00 | 95 | 1013.2 |
| 20260510071520 | 52 | 103 | 0.0 | 0.0 | 0.00 | 0.66 | 0.00 | 95 | 1013.2 |
| 20260510070021 | 52 | 103 | 0.0 | 0.0 | 0.00 | 0.66 | 0.00 | 95 | 1013.3 |
| 20260510064520 | 52 | 103 | 0.0 | 0.0 | 0.00 | 0.66 | 0.00 | 95 | 1013.1 |
| 20260510063105 | 52 | 104 | 0.0 | 0.0 | 0.00 | 0.66 | 0.00 | 95 | 1012.9 |
| 20260510061605 | 52 | 104 | 0.0 | 0.0 | 0.00 | 0.66 | 0.00 | 95 | 1012.7 |
| 20260510060038 | 52 | 104 | 0.0 | 1.0 | 0.00 | 0.66 | 0.00 | 95 | 1012.8 |
| 20260510054546 | 52 | 38 | 0.0 | 0.0 | 0.00 | 0.66 | 0.00 | 95 | 1012.9 |
| 20260510053020 | 52 | 38 | 0.0 | 0.0 | 0.00 | 0.66 | 0.00 | 95 | 1013.0 |
| 20260510051529 | 52 | 38 | 0.0 | 0.0 | 0.00 | 0.66 | 0.00 | 95 | 1013.0 |
| 20260510050007 | 52 | 38 | 0.0 | 0.0 | 0.00 | 0.66 | 0.00 | 95 | 1013.1 |
| 20260510044509 | 52 | 38 | 0.0 | 0.0 | 0.00 | 0.66 | 0.00 | 95 | 1013.1 |
| 20260510043017 | 52 | 38 | 0.0 | 0.0 | 0.00 | 0.66 | 0.00 | 95 | 1012.9 |
| 20260510041505 | 52 | 37 | 0.0 | 0.0 | 0.00 | 0.66 | 0.00 | 95 | 1012.9 |
| 20260510040005 | 52 | 38 | 0.0 | 0.0 | 0.00 | 0.66 | 0.66 | 95 | 1012.8 |
| 20260510034502 | 52 | 38 | 0.0 | 0.0 | 0.00 | 0.66 | 0.66 | 95 | 1012.7 |
| 20260510033002 | 52 | 34 | 0.0 | 0.0 | 0.00 | 0.66 | 0.66 | 95 | 1012.7 |
| 20260510031502 | 52 | 34 | 0.0 | 0.0 | 0.00 | 0.66 | 0.66 | 95 | 1013.0 |
| 20260510030045 | 52 | 34 | 0.0 | 0.0 | 0.00 | 0.66 | 0.66 | 95 | 1013.0 |
| 20260510024603 | 52 | 71 | 0.0 | 0.0 | 0.00 | 0.66 | 0.66 | 95 | 1012.8 |
| 20260510023040 | 51 | 146 | 0.0 | 1.0 | 0.00 | 0.66 | 0.66 | 95 | 1012.8 |
| 20260510021541 | 51 | 150 | 0.0 | 0.0 | 0.00 | 0.66 | 0.66 | 95 | 1012.7 |
| 20260510020022 | 51 | 150 | 0.0 | 0.0 | 0.00 | 0.66 | 0.66 | 95 | 1012.8 |
| 20260510014521 | 52 | 150 | 0.0 | 0.0 | 0.00 | 0.66 | 0.66 | 94 | 1012.8 |
| 20260510013003 | 52 | 150 | 0.0 | 0.0 | 0.00 | 0.66 | 0.66 | 94 | 1012.7 |
| 20260510011505 | 52 | 150 | 0.0 | 0.0 | 0.00 | 0.66 | 0.66 | 94 | 1012.8 |
| 20260510010044 | 52 | 74 | 0.0 | 1.0 | 0.00 | 0.66 | 0.66 | 94 | 1012.7 |
| 20260510004548 | 52 | 347 | 0.0 | 1.0 | 0.00 | 0.66 | 0.66 | 94 | 1012.7 |
| 20260510003028 | 52 | 121 | 0.0 | 0.0 | 0.01 | 0.66 | 0.66 | 94 | 1012.5 |
| 20260510001528 | 53 | 131 | 0.0 | 1.0 | 0.02 | 0.66 | 0.66 | 94 | 1012.2 |
| 20260510000012 | 53 | 101 | 0.0 | 2.0 | 0.08 | 0.66 | 0.66 | 94 | 1012.1 |
| 20260509234509 | 53 | 148 | 0.0 | 2.0 | 0.21 | 0.66 | 0.66 | 94 | 1012.3 |
| 20260509233052 | 53 | 98 | 1.0 | 9.0 | 0.24 | 0.65 | 0.65 | 94 | 1012.5 |
| 20260509231557 | 53 | 124 | 0.0 | 3.0 | 0.34 | 0.64 | 0.64 | 94 | 1012.9 |
| 20260509230028 | 53 | 245 | 0.0 | 3.0 | 0.37 | 0.56 | 0.56 | 94 | 1013.2 |
| 20260509224528 | 54 | 283 | 0.0 | 4.0 | 0.28 | 0.44 | 0.44 | 94 | 1013.2 |
| 20260509223015 | 54 | 229 | 0.0 | 4.0 | 0.25 | 0.40 | 0.40 | 93 | 1013.1 |
| 20260509221509 | 54 | 40 | 0.0 | 3.0 | 0.14 | 0.28 | 0.28 | 93 | 1013.4 |
| 20260509220050 | 54 | 99 | 0.0 | 2.0 | 0.06 | 0.20 | 0.20 | 93 | 1013.4 |
| 20260509214549 | 54 | 63 | 0.0 | 3.0 | 0.01 | 0.15 | 0.15 | 93 | 1013.5 |
| 20260509213032 | 55 | 280 | 0.0 | 4.0 | 0.01 | 0.15 | 0.15 | 93 | 1013.4 |
| 20260509211533 | 55 | 96 | 0.0 | 6.0 | 0.02 | 0.15 | 0.15 | 92 | 1013.3 |
| 20260509210016 | 55 | 60 | 0.0 | 4.0 | 0.04 | 0.14 | 0.14 | 92 | 1013.0 |
| 20260509204516 | 55 | 91 | 0.0 | 2.0 | 0.06 | 0.14 | 0.14 | 92 | 1012.8 |
| 20260509203055 | 55 | 101 | 0.0 | 2.0 | 0.07 | 0.14 | 0.14 | 92 | 1012.8 |
| 20260509201554 | 56 | 341 | 0.0 | 6.0 | 0.08 | 0.13 | 0.13 | 91 | 1013.3 |
| 20260509200045 | 56 | 155 | 0.0 | 7.0 | 0.06 | 0.11 | 0.10 | 90 | 1013.3 |
| 20260509194535 | 57 | 134 | 1.0 | 8.0 | 0.06 | 0.09 | 0.08 | 89 | 1013.1 |
| 20260509193016 | 57 | 145 | 0.0 | 5.0 | 0.06 | 0.08 | 0.07 | 88 | 1013.1 |
| 20260509191518 | 58 | 161 | 0.0 | 4.0 | 0.04 | 0.06 | 0.05 | 87 | 1012.8 |
| 20260509190058 | 59 | 155 | 0.0 | 6.0 | 0.03 | 0.05 | 0.04 | 85 | 1013.0 |
| 20260509184558 | 61 | 317 | 0.0 | 6.0 | 0.01 | 0.03 | 0.02 | 80 | 1012.9 |
| 20260509183040 | 62 | 155 | 1.0 | 8.0 | 0.00 | 0.02 | 0.01 | 75 | 1012.8 |
| 20260509181539 | 63 | 10 | 0.0 | 3.0 | 0.00 | 0.02 | 0.01 | 72 | 1012.6 |
| 20260509180024 | 64 | 246 | 1.0 | 7.0 | 0.00 | 0.02 | 0.01 | 71 | 1012.6 |
| 20260509174519 | 64 | 239 | 0.0 | 3.0 | 0.00 | 0.02 | 0.01 | 73 | 1012.7 |
| 20260509173119 | 63 | 143 | 1.0 | 6.0 | 0.00 | 0.02 | 0.01 | 71 | 1012.9 |
| 20260509171602 | 63 | 321 | 1.0 | 4.0 | 0.00 | 0.02 | 0.01 | 74 | 1012.9 |